Tracking 18984 objects as of 24-Feb-2018
HD Live streaming from Space Station
objects crossing your sky now

FENGYUN 1C DEB

Track FENGYUN 1C DEB now!
10-day predictions


NORAD ID: 32216
Int'l Code: 1999-025CVN
Perigee: 750.1 km
Apogee: 825.8 km
Inclination: 99.6 °
Period: 100.5 minutes
Semi major axis: 7158 km
RCS: 0.0127 m2 (small)
Launch date: May 10, 1999
Source: People's Republic of China (PRC)
Launch site: Taiyaun Space Center, China (TSC)

Note: This is SATELLITE DEBRIS
aabbcc
Your satellite tracking list
Your tracking list is empty




NASA's NSSDC Master Catalog

Two Line Element Set (TLE):
1 32216U 99025CVN 18048.95348313  .00001009  00000-0  37996-3 0  9993
2 32216  99.5584  82.9755 0052806 333.0608  26.7834 14.33273671549056
Source of the keplerian elements: AFSPC